• In Hungary
  • List of Countries
  • For 7 days
  • Water Temperature
  • Satellite Maps
  • Weather Map
  • News
  • Weather Widgets
  • user-avatar
    Login

    Hourly Weather Muhorshibir

    Today, 20 June, Wednesday

    Time Temperature Precipitation Wind Pressure Humidity
    00:00 +16°C° 0 mm 1 mps 692 mmHg 52%
    01:00 +16°C° 0 mm 2 mps 692 mmHg 52%
    02:00 +16°C° 0 mm 2 mps 691 mmHg 54%
    03:00 +15°C° 0 mm 2 mps 691 mmHg 56%
    04:00 +15°C° 0 mm 2 mps 691 mmHg 57%
    05:00 +17°C° 0 mm 2 mps 691 mmHg 52%
    06:00 +19°C° 0 mm 2 mps 691 mmHg 47%
    07:00 +23°C° 0 mm 2 mps 691 mmHg 42%
    08:00 +25°C° 0 mm 2 mps 691 mmHg 37%
    09:00 +27°C° 0 mm 2 mps 691 mmHg 31%
    10:00 +29°C° 0 mm 2 mps 691 mmHg 26%
    11:00 +30°C° 0 mm 2 mps 691 mmHg 25%
    12:00 +31°C° 0 mm 1 mps 691 mmHg 25%
    13:00 +32°C° 0 mm 1 mps 691 mmHg 24%
    14:00 +30°C° 0.1 mm 2 mps 690 mmHg 31%
    15:00 +28°C° 0.1 mm 2 mps 690 mmHg 37%
    16:00 +26°C° 0.1 mm 3 mps 689 mmHg 44%
    17:00 +25°C° 0.1 mm 3 mps 689 mmHg 49%
    18:00 +24°C° 0.1 mm 2 mps 689 mmHg 53%
    19:00 +21°C° 0.1 mm 2 mps 689 mmHg 58%
    20:00 +21°C° 0 mm 2 mps 689 mmHg 59%
    21:00 +21°C° 0 mm 1 mps 689 mmHg 60%
    22:00 +20°C° 0 mm 1 mps 689 mmHg 61%
    23:00 +19°C° 0 mm 1 mps 689 mmHg 62%

    Tomorrow, 21 June, Thursday

    Time Temperature Precipitation Wind Pressure Humidity
    00:00 +19°C° 0 mm 1 mps 689 mmHg 63%
    01:00 +18°C° 0 mm 1 mps 689 mmHg 65%
    02:00 +18°C° 0 mm 1 mps 689 mmHg 66%
    03:00 +16°C° 0 mm 1 mps 689 mmHg 67%
    04:00 +16°C° 0 mm 1 mps 689 mmHg 68%
    05:00 +19°C° 0 mm 1 mps 689 mmHg 63%
    06:00 +20°C° 0 mm 2 mps 690 mmHg 59%
    07:00 +23°C° 0 mm 2 mps 690 mmHg 54%
    08:00 +24°C° 0 mm 2 mps 690 mmHg 50%
    09:00 +26°C° 0 mm 2 mps 690 mmHg 47%
    10:00 +27°C° 0 mm 3 mps 690 mmHg 44%
    11:00 +27°C° 0 mm 3 mps 690 mmHg 44%
    12:00 +28°C° 0 mm 3 mps 690 mmHg 44%
    13:00 +28°C° 0 mm 4 mps 690 mmHg 44%
    14:00 +27°C° 0 mm 4 mps 690 mmHg 47%
    15:00 +26°C° 0 mm 5 mps 689 mmHg 50%
    16:00 +25°C° 0 mm 5 mps 689 mmHg 53%
    17:00 +23°C° 0 mm 4 mps 689 mmHg 60%
    18:00 +22°C° 0 mm 3 mps 689 mmHg 67%
    19:00 +21°C° 0 mm 2 mps 690 mmHg 74%
    20:00 +20°C° 0.1 mm 1 mps 690 mmHg 80%
    21:00 +19°C° 0.1 mm 1 mps 690 mmHg 86%
    22:00 +18°C° 0.1 mm 1 mps 690 mmHg 92%
    23:00 +16°C° 0 mm 1 mps 690 mmHg 93%

    Day after tomorrow, 22 June, Friday

    Time Temperature Precipitation Wind Pressure Humidity
    00:00 +16°C° 0 mm 1 mps 690 mmHg 94%
    01:00 +16°C° 0 mm 1 mps 690 mmHg 95%
    02:00 +15°C° 0 mm 1 mps 690 mmHg 95%
    03:00 +15°C° 0 mm 1 mps 690 mmHg 96%
    04:00 +14°C° 0 mm 1 mps 690 mmHg 96%
    05:00 +16°C° 0 mm 1 mps 690 mmHg 87%
    06:00 +19°C° 0 mm 1 mps 691 mmHg 79%
    07:00 +21°C° 0 mm 2 mps 691 mmHg 71%
    08:00 +24°C° 0 mm 2 mps 692 mmHg 62%
    09:00 +26°C° 0 mm 3 mps 692 mmHg 53%
    10:00 +28°C° 0 mm 3 mps 692 mmHg 44%
    11:00 +28°C° 0 mm 4 mps 692 mmHg 42%
    12:00 +29°C° 0 mm 4 mps 691 mmHg 39%
    13:00 +30°C° 0 mm 5 mps 691 mmHg 37%
    14:00 +29°C° 0 mm 5 mps 691 mmHg 39%
    15:00 +29°C° 0 mm 5 mps 691 mmHg 41%
    16:00 +28°C° 0 mm 5 mps 691 mmHg 43%
    17:00 +27°C° 0 mm 5 mps 691 mmHg 48%
    18:00 +25°C° 0 mm 4 mps 691 mmHg 53%
    19:00 +23°C° 0 mm 4 mps 691 mmHg 59%
    20:00 +20°C° 0 mm 3 mps 691 mmHg 68%
    21:00 +18°C° 0 mm 2 mps 691 mmHg 76%
    22:00 +16°C° 0 mm 2 mps 691 mmHg 85%
    23:00 +16°C° 0.1 mm 2 mps 691 mmHg 88%

    23 June, Saturday

    Time Temperature Precipitation Wind Pressure Humidity
    00:00 +15°C° 0.1 mm 2 mps 691 mmHg 90%
    01:00 +15°C° 0.1 mm 1 mps 691 mmHg 93%
    02:00 +15°C° 1.3 mm 2 mps 691 mmHg 94%
    03:00 +15°C° 1.3 mm 2 mps 691 mmHg 95%
    04:00 +15°C° 1.3 mm 2 mps 691 mmHg 96%
    05:00 +15°C° 2.5 mm 2 mps 691 mmHg 95%
    06:00 +15°C° 2.5 mm 2 mps 691 mmHg 95%
    07:00 +15°C° 2.5 mm 2 mps 691 mmHg 95%
    08:00 +16°C° 0.5 mm 2 mps 692 mmHg 92%
    09:00 +16°C° 0.5 mm 2 mps 692 mmHg 90%
    10:00 +17°C° 0.5 mm 2 mps 692 mmHg 87%
    11:00 +18°C° 0 mm 2 mps 692 mmHg 77%
    12:00 +20°C° 0 mm 2 mps 692 mmHg 67%
    13:00 +22°C° 0 mm 3 mps 692 mmHg 57%
    14:00 +24°C° 0.1 mm 3 mps 692 mmHg 52%
    15:00 +24°C° 0.1 mm 3 mps 692 mmHg 48%
    16:00 +25°C° 0.1 mm 3 mps 692 mmHg 44%
    17:00 +24°C° 0 mm 3 mps 692 mmHg 48%
    18:00 +23°C° 0 mm 2 mps 691 mmHg 52%
    19:00 +21°C° 0 mm 2 mps 691 mmHg 57%
    20:00 +19°C° 0 mm 2 mps 691 mmHg 62%
    21:00 +17°C° 0 mm 2 mps 691 mmHg 68%
    22:00 +15°C° 0 mm 1 mps 691 mmHg 74%
    23:00 +14°C° 0 mm 1 mps 691 mmHg 77%

    24 June, Sunday

    Time Temperature Precipitation Wind Pressure Humidity
    00:00 +14°C° 0 mm 1 mps 690 mmHg 81%
    01:00 +13°C° 0 mm 1 mps 690 mmHg 84%
    02:00 +13°C° 0 mm 1 mps 690 mmHg 85%
    03:00 +12°C° 0 mm 1 mps 690 mmHg 87%
    04:00 +12°C° 0 mm 1 mps 690 mmHg 88%
    05:00 +15°C° 0 mm 1 mps 690 mmHg 79%
    06:00 +18°C° 0 mm 1 mps 691 mmHg 69%
    07:00 +20°C° 0 mm 1 mps 691 mmHg 59%
    08:00 +21°C° 0.1 mm 2 mps 691 mmHg 53%
    09:00 +22°C° 0.1 mm 3 mps 691 mmHg 46%
    10:00 +25°C° 0.1 mm 4 mps 691 mmHg 39%
    11:00 +25°C° 0 mm 4 mps 691 mmHg 38%
    12:00 +25°C° 0 mm 4 mps 691 mmHg 37%
    13:00 +25°C° 0 mm 4 mps 691 mmHg 36%
    14:00 +25°C° 0 mm 4 mps 691 mmHg 37%
    15:00 +25°C° 0 mm 4 mps 690 mmHg 38%
    16:00 +25°C° 0 mm 3 mps 690 mmHg 39%
    17:00 +24°C° 0 mm 3 mps 690 mmHg 44%
    18:00 +23°C° 0 mm 2 mps 690 mmHg 49%
    19:00 +21°C° 0 mm 2 mps 690 mmHg 54%
    20:00 +20°C° 0 mm 1 mps 690 mmHg 60%
    21:00 +18°C° 0 mm 1 mps 690 mmHg 65%
    22:00 +15°C° 0 mm 1 mps 690 mmHg 71%
    23:00 +15°C° 0 mm 1 mps 690 mmHg 73%

    25 June, Monday

    Time Temperature Precipitation Wind Pressure Humidity
    00:00 +14°C° 0 mm 1 mps 690 mmHg 75%
    01:00 +14°C° 0 mm 1 mps 690 mmHg 78%
    02:00 +13°C° 0 mm 1 mps 690 mmHg 79%
    03:00 +13°C° 0 mm 1 mps 690 mmHg 80%
    04:00 +13°C° 0 mm 1 mps 690 mmHg 81%
    05:00 +15°C° 0 mm 1 mps 690 mmHg 72%
    06:00 +19°C° 0 mm 1 mps 690 mmHg 63%
    07:00 +20°C° 0 mm 2 mps 690 mmHg 54%
    08:00 +23°C° 0 mm 2 mps 690 mmHg 49%
    09:00 +24°C° 0 mm 3 mps 690 mmHg 43%
    10:00 +26°C° 0 mm 3 mps 690 mmHg 38%
    11:00 +27°C° 0 mm 3 mps 690 mmHg 36%
    12:00 +27°C° 0 mm 4 mps 690 mmHg 34%
    13:00 +28°C° 0 mm 4 mps 690 mmHg 32%
    14:00 +28°C° 0 mm 4 mps 690 mmHg 31%
    15:00 +28°C° 0 mm 4 mps 690 mmHg 30%
    16:00 +29°C° 0 mm 4 mps 690 mmHg 28%
    17:00 +27°C° 0 mm 3 mps 689 mmHg 34%
    18:00 +26°C° 0 mm 2 mps 689 mmHg 40%
    19:00 +24°C° 0 mm 2 mps 689 mmHg 46%
    20:00 +22°C° 0 mm 1 mps 689 mmHg 52%
    21:00 +20°C° 0 mm 1 mps 689 mmHg 57%
    22:00 +18°C° 0 mm 1 mps 689 mmHg 63%
    23:00 +15°C° 0 mm 0 mps 689 mmHg 65%
    Show more